| time (UTC) | temp C | wind direction | speed KPH | gust KPH | rain 1hr cm | rain 24hr cm | rain mn cm | humidity % | barometer mb |
| 20260831230957 | 37 | 359 | 0.0 | 9.7 | 0.00 | 0.00 | 0.00 | 32 | 1015.2 |
| 20260831230452 | 37 | 183 | 3.2 | 11.3 | 0.00 | 0.00 | 0.00 | 32 | 1015.3 |
| 20260831225947 | 37 | 278 | 6.4 | 12.9 | 0.00 | 0.00 | 0.00 | 31 | 1015.0 |
| 20260831225443 | 37 | 39 | 1.6 | 6.4 | 0.00 | 0.00 | 0.00 | 32 | 1015.0 |
| 20260831224938 | 37 | 35 | 6.4 | 9.7 | 0.00 | 0.00 | 0.00 | 31 | 1015.2 |
| 20260831224437 | 37 | 251 | 8.0 | 12.9 | 0.00 | 0.00 | 0.00 | 31 | 1015.1 |
| 20260831223932 | 37 | 56 | 4.8 | 9.7 | 0.00 | 0.00 | 0.00 | 31 | 1015.0 |
| 20260831223427 | 38 | 262 | 1.6 | 11.3 | 0.00 | 0.00 | 0.00 | 31 | 1014.9 |
| 20260831222924 | 38 | 237 | 4.8 | 11.3 | 0.00 | 0.00 | 0.00 | 30 | 1015.2 |
| 20260831222419 | 38 | 28 | 1.6 | 6.4 | 0.00 | 0.00 | 0.00 | 30 | 1015.0 |
| 20260831221914 | 38 | 215 | 3.2 | 4.8 | 0.00 | 0.00 | 0.00 | 30 | 1015.0 |
| 20260831221410 | 38 | 153 | 0.0 | 4.8 | 0.00 | 0.00 | 0.00 | 30 | 1014.9 |
| 20260831220905 | 38 | 129 | 4.8 | 9.7 | 0.00 | 0.00 | 0.00 | 31 | 1015.1 |
| 20260831220355 | 38 | 215 | 1.6 | 6.4 | 0.00 | 0.00 | 0.00 | 30 | 1014.9 |
| 20260831215850 | 39 | 217 | 3.2 | 14.5 | 0.00 | 0.00 | 0.00 | 31 | 1015.1 |
| 20260831215345 | 39 | 290 | 3.2 | 11.3 | 0.00 | 0.00 | 0.00 | 29 | 1015.0 |
| 20260831214842 | 39 | 271 | 6.4 | 11.3 | 0.00 | 0.00 | 0.00 | 29 | 1015.0 |
| 20260831214339 | 40 | 265 | 4.8 | 4.8 | 0.00 | 0.00 | 0.00 | 28 | 1015.0 |
| 20260831213833 | 39 | 276 | 3.2 | 4.8 | 0.00 | 0.00 | 0.00 | 30 | 1015.3 |
| 20260831213330 | 40 | 252 | 8.0 | 14.5 | 0.00 | 0.00 | 0.00 | 29 | 1015.4 |
| 20260831212825 | 40 | 244 | 3.2 | 9.7 | 0.00 | 0.00 | 0.00 | 29 | 1015.4 |
| 20260831212322 | 40 | 261 | 1.6 | 6.4 | 0.00 | 0.00 | 0.00 | 29 | 1015.5 |
| 20260831211820 | 39 | 285 | 1.6 | 4.8 | 0.00 | 0.00 | 0.00 | 30 | 1015.6 |
| 20260831211315 | 38 | 263 | 1.6 | 9.7 | 0.00 | 0.00 | 0.00 | 30 | 1015.4 |
| 20260831210810 | 39 | 166 | 8.0 | 14.5 | 0.00 | 0.00 | 0.00 | 30 | 1015.5 |
| 20260831210307 | 39 | 269 | 6.4 | 11.3 | 0.00 | 0.00 | 0.00 | 31 | 1015.7 |
| 20260831205806 | 38 | 295 | 6.4 | 11.3 | 0.00 | 0.00 | 0.00 | 30 | 1015.6 |
| 20260831205305 | 38 | 160 | 3.2 | 4.8 | 0.00 | 0.00 | 0.00 | 30 | 1015.9 |
| 20260831204755 | 37 | 222 | 0.0 | 4.8 | 0.00 | 0.00 | 0.00 | 32 | 1015.7 |
| 20260831204254 | 38 | 298 | 3.2 | 4.8 | 0.00 | 0.00 | 0.00 | 31 | 1015.9 |
| 20260831203754 | 38 | 322 | 4.8 | 9.7 | 0.00 | 0.00 | 0.00 | 30 | 1015.6 |
| 20260831203248 | 40 | 249 | 3.2 | 4.8 | 0.00 | 0.00 | 0.00 | 29 | 1015.8 |
| 20260831202747 | 39 | 86 | 4.8 | 17.7 | 0.00 | 0.00 | 0.00 | 30 | 1015.8 |
| 20260831202242 | 40 | 212 | 3.2 | 9.7 | 0.00 | 0.00 | 0.00 | 29 | 1015.8 |
| 20260831201737 | 39 | 30 | 3.2 | 6.4 | 0.00 | 0.00 | 0.00 | 30 | 1016.1 |
| 20260831201236 | 39 | 50 | 1.6 | 4.8 | 0.00 | 0.00 | 0.00 | 30 | 1016.2 |
| 20260831200732 | 39 | 41 | 4.8 | 11.3 | 0.00 | 0.00 | 0.00 | 30 | 1016.2 |
| 20260831200232 | 39 | 338 | 3.2 | 4.8 | 0.00 | 0.00 | 0.00 | 30 | 1016.3 |
| 20260831195727 | 39 | 253 | 6.4 | 9.7 | 0.00 | 0.00 | 0.00 | 30 | 1016.1 |
| 20260831195223 | 39 | 41 | 3.2 | 9.7 | 0.00 | 0.00 | 0.00 | 30 | 1016.5 |
| 20260831194718 | 40 | 110 | 3.2 | 14.5 | 0.00 | 0.00 | 0.00 | 28 | 1016.6 |
| 20260831194214 | 39 | 331 | 1.6 | 4.8 | 0.00 | 0.00 | 0.00 | 29 | 1016.5 |
| 20260831193707 | 38 | 275 | 1.6 | 11.3 | 0.00 | 0.00 | 0.00 | 30 | 1016.4 |
| 20260831193202 | 39 | 239 | 8.0 | 12.9 | 0.00 | 0.00 | 0.00 | 29 | 1016.4 |
| 20260831192657 | 38 | 249 | 1.6 | 4.8 | 0.00 | 0.00 | 0.00 | 30 | 1016.5 |
| 20260831192153 | 39 | 183 | 8.0 | 9.7 | 0.00 | 0.00 | 0.00 | 31 | 1016.6 |
| 20260831191648 | 38 | 291 | 4.8 | 6.4 | 0.00 | 0.00 | 0.00 | 31 | 1016.6 |
| 20260831191144 | 38 | 267 | 6.4 | 9.7 | 0.00 | 0.00 | 0.00 | 32 | 1016.6 |
| 20260831190639 | 37 | 51 | 1.6 | 11.3 | 0.00 | 0.00 | 0.00 | 32 | 1016.7 |
| 20260831190138 | 38 | 189 | 3.2 | 6.4 | 0.00 | 0.00 | 0.00 | 33 | 1016.9 |
| 20260831185634 | 39 | 235 | 4.8 | 6.4 | 0.00 | 0.00 | 0.00 | 31 | 1016.9 |
| 20260831185130 | 38 | 135 | 1.6 | 4.8 | 0.00 | 0.00 | 0.00 | 31 | 1016.7 |
| 20260831184629 | 38 | 246 | 4.8 | 6.4 | 0.00 | 0.00 | 0.00 | 31 | 1017.0 |
| 20260831184125 | 37 | 205 | 3.2 | 4.8 | 0.00 | 0.00 | 0.00 | 32 | 1017.0 |
| 20260831183619 | 38 | 337 | 3.2 | 6.4 | 0.00 | 0.00 | 0.00 | 33 | 1017.1 |
| 20260831183118 | 38 | 168 | 3.2 | 9.7 | 0.00 | 0.00 | 0.00 | 32 | 1017.2 |
| 20260831182617 | 38 | 243 | 0.0 | 3.2 | 0.00 | 0.00 | 0.00 | 32 | 1017.2 |
| 20260831182113 | 37 | 256 | 4.8 | 9.7 | 0.00 | 0.00 | 0.00 | 32 | 1017.3 |
| 20260831181608 | 38 | 252 | 1.6 | 11.3 | 0.00 | 0.00 | 0.00 | 33 | 1017.1 |
| 20260831181107 | 38 | 51 | 3.2 | 16.1 | 0.00 | 0.00 | 0.00 | 33 | 1017.3 |
| 20260831180602 | 38 | 206 | 4.8 | 11.3 | 0.00 | 0.00 | 0.00 | 32 | 1017.2 |
| 20260831180058 | 38 | 28 | 1.6 | 16.1 | 0.00 | 0.00 | 0.00 | 34 | 1017.2 |
| 20260831175547 | 37 | 235 | 4.8 | 6.4 | 0.00 | 0.00 | 0.00 | 35 | 1017.4 |
| 20260831175044 | 38 | 308 | 1.6 | 9.7 | 0.00 | 0.00 | 0.00 | 35 | 1017.5 |
| 20260831174538 | 38 | 265 | 6.4 | 12.9 | 0.00 | 0.00 | 0.00 | 35 | 1017.7 |
| 20260831174032 | 37 | 215 | 3.2 | 11.3 | 0.00 | 0.00 | 0.00 | 36 | 1017.5 |
| 20260831173531 | 37 | 252 | 4.8 | 11.3 | 0.00 | 0.00 | 0.00 | 36 | 1017.6 |
| 20260831173028 | 36 | 211 | 4.8 | 20.9 | 0.00 | 0.00 | 0.00 | 38 | 1017.8 |
| 20260831172527 | 37 | 244 | 6.4 | 12.9 | 0.00 | 0.00 | 0.00 | 36 | 1017.9 |
| 20260831172022 | 36 | 77 | 1.6 | 11.3 | 0.00 | 0.00 | 0.00 | 39 | 1017.9 |
| 20260831171518 | 36 | 243 | 9.7 | 12.9 | 0.00 | 0.00 | 0.00 | 38 | 1017.9 |
| 20260831171015 | 36 | 262 | 6.4 | 11.3 | 0.00 | 0.00 | 0.00 | 39 | 1017.9 |
| 20260831170511 | 37 | 270 | 6.4 | 9.7 | 0.00 | 0.00 | 0.00 | 38 | 1018.1 |
| 20260831170009 | 37 | 119 | 3.2 | 9.7 | 0.00 | 0.00 | 0.00 | 38 | 1018.0 |
| 20260831165509 | 37 | 97 | 3.2 | 9.7 | 0.00 | 0.00 | 0.00 | 39 | 1018.1 |
| 20260831165006 | 36 | 208 | 4.8 | 9.7 | 0.00 | 0.00 | 0.00 | 40 | 1018.1 |
| 20260831164501 | 36 | 32 | 0.0 | 3.2 | 0.00 | 0.00 | 0.00 | 41 | 1018.1 |
| 20260831163956 | 36 | 268 | 4.8 | 11.3 | 0.00 | 0.00 | 0.00 | 40 | 1018.0 |
| 20260831163451 | 36 | 244 | 3.2 | 9.7 | 0.00 | 0.00 | 0.00 | 41 | 1018.1 |
| 20260831162950 | 36 | 265 | 1.6 | 12.9 | 0.00 | 0.00 | 0.00 | 42 | 1018.2 |
| 20260831162446 | 36 | 343 | 1.6 | 4.8 | 0.00 | 0.00 | 0.00 | 42 | 1018.1 |
| 20260831161943 | 35 | 269 | 4.8 | 6.4 | 0.00 | 0.00 | 0.00 | 42 | 1018.1 |
| 20260831161441 | 35 | 239 | 4.8 | 9.7 | 0.00 | 0.00 | 0.00 | 43 | 1018.1 |
| 20260831160936 | 35 | 284 | 9.7 | 17.7 | 0.00 | 0.00 | 0.00 | 43 | 1018.2 |
| 20260831160436 | 35 | 270 | 6.4 | 11.3 | 0.00 | 0.00 | 0.00 | 42 | 1018.1 |
| 20260831155930 | 35 | 131 | 6.4 | 6.4 | 0.00 | 0.00 | 0.00 | 43 | 1018.2 |
| 20260831155425 | 35 | 230 | 3.2 | 11.3 | 0.00 | 0.00 | 0.00 | 44 | 1018.1 |
| 20260831154920 | 35 | 310 | 6.4 | 9.7 | 0.00 | 0.00 | 0.00 | 43 | 1018.1 |
| 20260831154417 | 35 | 261 | 4.8 | 9.7 | 0.00 | 0.00 | 0.00 | 44 | 1018.0 |
| 20260831153915 | 35 | 227 | 3.2 | 4.8 | 0.00 | 0.00 | 0.00 | 43 | 1018.2 |
| 20260831153411 | 35 | 262 | 1.6 | 3.2 | 0.00 | 0.00 | 0.00 | 44 | 1018.3 |
| 20260831152907 | 34 | 246 | 6.4 | 9.7 | 0.00 | 0.00 | 0.00 | 45 | 1018.0 |
| 20260831152402 | 33 | 175 | 4.8 | 6.4 | 0.00 | 0.00 | 0.00 | 46 | 1018.1 |
| 20260831151857 | 33 | 263 | 3.2 | 4.8 | 0.00 | 0.00 | 0.00 | 46 | 1018.1 |
| 20260831151356 | 33 | 17 | 1.6 | 3.2 | 0.00 | 0.00 | 0.00 | 46 | 1018.1 |
| 20260831150851 | 33 | 118 | 3.2 | 4.8 | 0.00 | 0.00 | 0.00 | 47 | 1018.2 |
| 20260831150347 | 33 | 251 | 1.6 | 9.7 | 0.00 | 0.00 | 0.00 | 47 | 1018.4 |
| 20260831145846 | 33 | 225 | 3.2 | 3.2 | 0.00 | 0.00 | 0.00 | 47 | 1018.3 |
| 20260831145343 | 32 | 297 | 4.8 | 9.7 | 0.00 | 0.00 | 0.00 | 48 | 1018.4 |
| 20260831144838 | 32 | 249 | 4.8 | 9.7 | 0.00 | 0.00 | 0.00 | 48 | 1018.3 |
| 20260831144334 | 33 | 284 | 1.6 | 3.2 | 0.00 | 0.00 | 0.00 | 48 | 1018.4 |
| 20260831143828 | 32 | 275 | 1.6 | 9.7 | 0.00 | 0.00 | 0.00 | 49 | 1018.2 |
| 20260831143323 | 32 | 270 | 3.2 | 4.8 | 0.00 | 0.00 | 0.00 | 50 | 1018.3 |
| 20260831142819 | 31 | 274 | 1.6 | 6.4 | 0.00 | 0.00 | 0.00 | 50 | 1018.4 |
| 20260831142314 | 31 | 191 | 1.6 | 3.2 | 0.00 | 0.00 | 0.00 | 51 | 1018.3 |
| 20260831141809 | 31 | 248 | 3.2 | 4.8 | 0.00 | 0.00 | 0.00 | 50 | 1018.3 |
| 20260831141303 | 31 | 176 | 1.6 | 6.4 | 0.00 | 0.00 | 0.00 | 51 | 1018.3 |
| 20260831140758 | 31 | 91 | 4.8 | 6.4 | 0.00 | 0.00 | 0.00 | 52 | 1018.5 |
| 20260831140253 | 31 | 267 | 1.6 | 4.8 | 0.00 | 0.00 | 0.00 | 52 | 1018.2 |
| 20260831135750 | 31 | 28 | 1.6 | 4.8 | 0.00 | 0.00 | 0.00 | 52 | 1018.4 |
| 20260831135246 | 30 | 30 | 1.6 | 1.6 | 0.00 | 0.00 | 0.00 | 53 | 1018.4 |
| 20260831134742 | 30 | 246 | 1.6 | 4.8 | 0.00 | 0.00 | 0.00 | 52 | 1018.4 |
| 20260831134238 | 29 | 263 | 3.2 | 6.4 | 0.00 | 0.00 | 0.00 | 53 | 1018.4 |
| 20260831133736 | 29 | 345 | 0.0 | 3.2 | 0.00 | 0.00 | 0.00 | 53 | 1018.3 |
| 20260831133231 | 29 | 62 | 1.6 | 3.2 | 0.00 | 0.00 | 0.00 | 54 | 1018.3 |
| 20260831132726 | 29 | 20 | 1.6 | 1.6 | 0.00 | 0.00 | 0.00 | 53 | 1018.3 |
| 20260831132226 | 28 | 270 | 0.0 | 1.6 | 0.00 | 0.00 | 0.00 | 55 | 1018.1 |
| 20260831131721 | 28 | 44 | 0.0 | 1.6 | 0.00 | 0.00 | 0.00 | 55 | 1018.2 |
| 20260831131218 | 27 | 44 | 0.0 | 1.6 | 0.00 | 0.00 | 0.00 | 56 | 1018.1 |
| 20260831130712 | 27 | 139 | 1.6 | 1.6 | 0.00 | 0.00 | 0.00 | 57 | 1017.9 |
| 20260831130208 | 27 | 182 | 0.0 | 1.6 | 0.00 | 0.00 | 0.00 | 58 | 1017.9 |
| 20260831125706 | 26 | 182 | 0.0 | 1.6 | 0.00 | 0.00 | 0.00 | 58 | 1017.9 |
| 20260831125203 | 26 | 183 | 0.0 | 3.2 | 0.00 | 0.00 | 0.00 | 58 | 1017.9 |
| 20260831124657 | 26 | 216 | 1.6 | 4.8 | 0.00 | 0.00 | 0.00 | 58 | 1017.8 |
| 20260831124153 | 26 | 341 | 1.6 | 1.6 | 0.00 | 0.00 | 0.00 | 58 | 1017.7 |
| 20260831123653 | 26 | 330 | 0.0 | 1.6 | 0.00 | 0.00 | 0.00 | 58 | 1017.7 |
| 20260831123151 | 26 | 272 | 0.0 | 1.6 | 0.00 | 0.00 | 0.00 | 58 | 1017.6 |
| 20260831122646 | 26 | 261 | 0.0 | 1.6 | 0.00 | 0.00 | 0.00 | 57 | 1017.4 |
| 20260831122143 | 26 | 240 | 0.0 | 1.6 | 0.00 | 0.00 | 0.00 | 57 | 1017.4 |
| 20260831121641 | 26 | 274 | 0.0 | 3.2 | 0.00 | 0.00 | 0.00 | 57 | 1017.4 |
| 20260831121138 | 26 | 121 | 0.0 | 1.6 | 0.00 | 0.00 | 0.00 | 57 | 1017.3 |
| 20260831120633 | 26 | 153 | 1.6 | 4.8 | 0.00 | 0.00 | 0.00 | 57 | 1017.2 |
| 20260831120128 | 26 | 159 | 0.0 | 1.6 | 0.00 | 0.00 | 0.00 | 57 | 1017.1 |
| 20260831115624 | 26 | 42 | 0.0 | 1.6 | 0.00 | 0.00 | 0.00 | 56 | 1017.2 |
| 20260831115119 | 26 | 326 | 0.0 | 3.2 | 0.00 | 0.00 | 0.00 | 56 | 1016.9 |
| 20260831114618 | 26 | 227 | 1.6 | 1.6 | 0.00 | 0.00 | 0.00 | 56 | 1017.0 |
| 20260831114113 | 26 | 213 | 1.6 | 3.2 | 0.00 | 0.00 | 0.00 | 56 | 1016.8 |
| 20260831113612 | 26 | 284 | 1.6 | 3.2 | 0.00 | 0.00 | 0.00 | 56 | 1016.7 |
| 20260831113108 | 26 | 283 | 0.0 | 1.6 | 0.00 | 0.00 | 0.00 | 55 | 1016.7 |
| 20260831112607 | 26 | 278 | 1.6 | 1.6 | 0.00 | 0.00 | 0.00 | 55 | 1016.9 |
| 20260831112102 | 27 | 189 | 0.0 | 3.2 | 0.00 | 0.00 | 0.00 | 55 | 1016.9 |
| 20260831111558 | 27 | 233 | 0.0 | 3.2 | 0.00 | 0.00 | 0.00 | 54 | 1016.5 |
| 20260831111053 | 27 | 287 | 4.8 | 6.4 | 0.00 | 0.00 | 0.00 | 54 | 1016.5 |
| 20260831110548 | 27 | 231 | 0.0 | 3.2 | 0.00 | 0.00 | 0.00 | 54 | 1016.4 |
| 20260831110043 | 27 | 302 | 0.0 | 1.6 | 0.00 | 0.00 | 0.00 | 54 | 1016.3 |
| 20260831105542 | 27 | 28 | 1.6 | 3.2 | 0.00 | 0.00 | 0.00 | 54 | 1016.3 |
| 20260831105038 | 27 | 177 | 1.6 | 4.8 | 0.00 | 0.00 | 0.00 | 53 | 1016.3 |
| 20260831104534 | 27 | 310 | 1.6 | 1.6 | 0.00 | 0.00 | 0.00 | 54 | 1016.3 |
| 20260831104030 | 27 | 258 | 3.2 | 4.8 | 0.00 | 0.00 | 0.00 | 53 | 1016.2 |
| 20260831103525 | 27 | 87 | 0.0 | 1.6 | 0.00 | 0.00 | 0.00 | 53 | 1016.3 |
| 20260831103021 | 27 | 267 | 3.2 | 4.8 | 0.00 | 0.00 | 0.00 | 53 | 1016.2 |
| 20260831102520 | 27 | 306 | 0.0 | 3.2 | 0.00 | 0.00 | 0.00 | 53 | 1016.2 |
| 20260831102016 | 27 | 149 | 1.6 | 3.2 | 0.00 | 0.00 | 0.00 | 53 | 1016.3 |
| 20260831101511 | 27 | 8 | 1.6 | 3.2 | 0.00 | 0.00 | 0.00 | 52 | 1016.3 |
| 20260831101007 | 27 | 211 | 3.2 | 9.7 | 0.00 | 0.00 | 0.00 | 52 | 1016.2 |
| 20260831100503 | 27 | 264 | 3.2 | 4.8 | 0.00 | 0.00 | 0.00 | 52 | 1016.2 |
| 20260831095958 | 28 | 46 | 0.0 | 4.8 | 0.00 | 0.00 | 0.00 | 51 | 1016.3 |
| 20260831095457 | 28 | 210 | 1.6 | 1.6 | 0.00 | 0.00 | 0.00 | 51 | 1015.9 |
| 20260831094952 | 28 | 264 | 1.6 | 3.2 | 0.00 | 0.00 | 0.00 | 51 | 1016.2 |
| 20260831094448 | 28 | 240 | 3.2 | 4.8 | 0.00 | 0.00 | 0.00 | 50 | 1016.1 |
| 20260831093944 | 28 | 220 | 0.0 | 4.8 | 0.00 | 0.00 | 0.00 | 50 | 1016.1 |
| 20260831093439 | 28 | 307 | 3.2 | 4.8 | 0.00 | 0.00 | 0.00 | 50 | 1016.1 |
| 20260831092935 | 28 | 239 | 3.2 | 4.8 | 0.00 | 0.00 | 0.00 | 50 | 1016.1 |
| 20260831092431 | 28 | 299 | 3.2 | 6.4 | 0.00 | 0.00 | 0.00 | 49 | 1015.9 |
| 20260831091925 | 28 | 358 | 0.0 | 9.7 | 0.00 | 0.00 | 0.00 | 49 | 1015.7 |
| 20260831091420 | 28 | 286 | 1.6 | 14.5 | 0.00 | 0.00 | 0.00 | 49 | 1015.7 |
| 20260831090910 | 28 | 320 | 1.6 | 4.8 | 0.00 | 0.00 | 0.00 | 49 | 1015.5 |
| 20260831090406 | 28 | 236 | 0.0 | 3.2 | 0.00 | 0.00 | 0.00 | 49 | 1015.6 |
| 20260831085903 | 28 | 71 | 1.6 | 3.2 | 0.00 | 0.00 | 0.00 | 49 | 1015.8 |
| 20260831085402 | 29 | 308 | 0.0 | 6.4 | 0.00 | 0.00 | 0.00 | 49 | 1015.7 |
| 20260831084856 | 29 | 264 | 3.2 | 9.7 | 0.00 | 0.00 | 0.00 | 49 | 1015.5 |
| 20260831084353 | 29 | 252 | 3.2 | 6.4 | 0.00 | 0.00 | 0.00 | 48 | 1015.5 |
| 20260831083849 | 29 | 230 | 3.2 | 6.4 | 0.00 | 0.00 | 0.00 | 48 | 1015.6 |
| 20260831083344 | 29 | 271 | 3.2 | 9.7 | 0.00 | 0.00 | 0.00 | 48 | 1015.4 |
| 20260831082842 | 29 | 277 | 3.2 | 9.7 | 0.00 | 0.00 | 0.00 | 48 | 1015.8 |
| 20260831082332 | 30 | 177 | 1.6 | 9.7 | 0.00 | 0.00 | 0.00 | 48 | 1015.5 |
| 20260831081827 | 30 | 252 | 6.4 | 11.3 | 0.00 | 0.00 | 0.00 | 47 | 1015.7 |
| 20260831081322 | 30 | 238 | 8.0 | 9.7 | 0.00 | 0.00 | 0.00 | 47 | 1015.5 |
| 20260831080818 | 30 | 314 | 3.2 | 16.1 | 0.00 | 0.00 | 0.00 | 47 | 1015.6 |
| 20260831080313 | 30 | 207 | 1.6 | 4.8 | 0.00 | 0.00 | 0.00 | 47 | 1015.7 |
| 20260831075809 | 30 | 121 | 4.8 | 6.4 | 0.00 | 0.00 | 0.00 | 47 | 1015.7 |
| 20260831075306 | 29 | 238 | 3.2 | 6.4 | 0.00 | 0.00 | 0.00 | 47 | 1015.5 |
| 20260831074803 | 30 | 118 | 0.0 | 4.8 | 0.00 | 0.00 | 0.00 | 46 | 1015.6 |
| 20260831074302 | 30 | 37 | 1.6 | 6.4 | 0.00 | 0.00 | 0.00 | 46 | 1015.7 |
| 20260831073759 | 29 | 275 | 0.0 | 3.2 | 0.00 | 0.00 | 0.00 | 46 | 1015.5 |
| 20260831073257 | 29 | 211 | 1.6 | 3.2 | 0.00 | 0.00 | 0.00 | 46 | 1015.5 |
| 20260831072752 | 30 | 266 | 3.2 | 4.8 | 0.00 | 0.00 | 0.00 | 46 | 1015.5 |
| 20260831072249 | 30 | 258 | 0.0 | 6.4 | 0.00 | 0.00 | 0.00 | 46 | 1015.5 |
| 20260831071744 | 30 | 219 | 1.6 | 3.2 | 0.00 | 0.00 | 0.00 | 46 | 1015.5 |
| 20260831071238 | 30 | 231 | 4.8 | 9.7 | 0.00 | 0.00 | 0.00 | 45 | 1015.4 |
| 20260831070733 | 30 | 94 | 0.0 | 3.2 | 0.00 | 0.00 | 0.00 | 45 | 1015.5 |
| 20260831070227 | 30 | 227 | 1.6 | 3.2 | 0.00 | 0.00 | 0.00 | 44 | 1015.5 |
| 20260831065726 | 30 | 192 | 0.0 | 4.8 | 0.00 | 0.00 | 0.00 | 44 | 1015.5 |
| 20260831065224 | 30 | 55 | 1.6 | 4.8 | 0.00 | 0.00 | 0.00 | 44 | 1015.4 |
| 20260831064719 | 30 | 329 | 1.6 | 6.4 | 0.00 | 0.00 | 0.00 | 44 | 1015.5 |
| 20260831064215 | 30 | 54 | 1.6 | 3.2 | 0.00 | 0.00 | 0.00 | 44 | 1015.4 |
| 20260831063711 | 30 | 298 | 0.0 | 3.2 | 0.00 | 0.00 | 0.00 | 44 | 1015.3 |
| 20260831063206 | 30 | 194 | 0.0 | 9.7 | 0.00 | 0.00 | 0.00 | 44 | 1015.3 |
| 20260831062705 | 30 | 74 | 1.6 | 3.2 | 0.00 | 0.00 | 0.00 | 44 | 1015.3 |
| 20260831062205 | 31 | 254 | 3.2 | 6.4 | 0.00 | 0.00 | 0.00 | 44 | 1015.4 |
| 20260831061703 | 31 | 150 | 1.6 | 3.2 | 0.00 | 0.00 | 0.00 | 44 | 1015.3 |
| 20260831061159 | 31 | 273 | 0.0 | 6.4 | 0.00 | 0.00 | 0.00 | 44 | 1015.5 |
| 20260831060655 | 31 | 155 | 1.6 | 4.8 | 0.00 | 0.00 | 0.00 | 44 | 1015.6 |
| 20260831060154 | 31 | 318 | 0.0 | 6.4 | 0.00 | 0.00 | 0.00 | 44 | 1015.6 |
| 20260831055653 | 31 | 262 | 3.2 | 6.4 | 0.00 | 0.00 | 0.00 | 44 | 1015.3 |
| 20260831055149 | 31 | 83 | 1.6 | 6.4 | 0.00 | 0.00 | 0.00 | 44 | 1015.3 |
| 20260831054644 | 31 | 231 | 4.8 | 11.3 | 0.00 | 0.00 | 0.00 | 44 | 1015.3 |
| 20260831054143 | 31 | 267 | 1.6 | 3.2 | 0.00 | 0.00 | 0.00 | 43 | 1015.2 |
| 20260831053639 | 31 | 276 | 3.2 | 4.8 | 0.00 | 0.00 | 0.00 | 43 | 1015.2 |
| 20260831053137 | 31 | 158 | 1.6 | 6.4 | 0.00 | 0.00 | 0.00 | 43 | 1015.2 |
| 20260831052636 | 31 | 269 | 1.6 | 9.7 | 0.00 | 0.00 | 0.00 | 44 | 1015.3 |
| 20260831052135 | 31 | 268 | 3.2 | 6.4 | 0.00 | 0.00 | 0.00 | 44 | 1015.2 |
| 20260831051629 | 31 | 245 | 1.6 | 4.8 | 0.00 | 0.00 | 0.00 | 44 | 1015.1 |
| 20260831051127 | 31 | 34 | 4.8 | 6.4 | 0.00 | 0.00 | 0.00 | 44 | 1015.1 |
| 20260831050622 | 31 | 303 | 3.2 | 4.8 | 0.00 | 0.00 | 0.00 | 44 | 1015.2 |
| 20260831050120 | 31 | 48 | 3.2 | 6.4 | 0.00 | 0.00 | 0.00 | 44 | 1015.3 |
| 20260831045620 | 31 | 283 | 8.0 | 9.7 | 0.00 | 0.00 | 0.00 | 43 | 1015.3 |
| 20260831045110 | 31 | 252 | 4.8 | 9.7 | 0.00 | 0.00 | 0.00 | 43 | 1015.1 |
| 20260831044605 | 31 | 264 | 4.8 | 9.7 | 0.00 | 0.00 | 0.00 | 43 | 1015.1 |
| 20260831044100 | 31 | 205 | 3.2 | 11.3 | 0.00 | 0.00 | 0.00 | 43 | 1015.0 |
| 20260831043555 | 31 | 4 | 1.6 | 4.8 | 0.00 | 0.00 | 0.00 | 44 | 1015.1 |
| 20260831043051 | 31 | 142 | 3.2 | 12.9 | 0.00 | 0.00 | 0.00 | 43 | 1015.1 |
| 20260831042550 | 31 | 49 | 6.4 | 16.1 | 0.00 | 0.00 | 0.00 | 44 | 1015.0 |
| 20260831042045 | 31 | 349 | 3.2 | 3.2 | 0.00 | 0.00 | 0.00 | 44 | 1015.1 |
| 20260831041540 | 31 | 254 | 0.0 | 3.2 | 0.00 | 0.00 | 0.00 | 44 | 1015.1 |
| 20260831041039 | 31 | 281 | 1.6 | 4.8 | 0.00 | 0.00 | 0.00 | 43 | 1015.0 |
| 20260831040534 | 31 | 134 | 1.6 | 6.4 | 0.00 | 0.00 | 0.00 | 43 | 1015.0 |
| 20260831040033 | 32 | 292 | 4.8 | 6.4 | 0.00 | 0.00 | 0.00 | 42 | 1014.9 |
| 20260831035525 | 32 | 280 | 3.2 | 6.4 | 0.00 | 0.00 | 0.00 | 42 | 1015.1 |
| 20260831035021 | 32 | 271 | 0.0 | 3.2 | 0.00 | 0.00 | 0.00 | 42 | 1015.1 |
| 20260831034515 | 32 | 269 | 3.2 | 6.4 | 0.00 | 0.00 | 0.00 | 41 | 1015.1 |
| 20260831034010 | 32 | 241 | 3.2 | 4.8 | 0.00 | 0.00 | 0.00 | 41 | 1015.0 |
| 20260831033506 | 32 | 70 | 0.0 | 11.3 | 0.00 | 0.00 | 0.00 | 41 | 1014.8 |
| 20260831033001 | 32 | 249 | 3.2 | 4.8 | 0.00 | 0.00 | 0.00 | 41 | 1015.0 |
| 20260831032501 | 32 | 74 | 1.6 | 4.8 | 0.00 | 0.00 | 0.00 | 41 | 1014.9 |
| 20260831031956 | 32 | 273 | 1.6 | 3.2 | 0.00 | 0.00 | 0.00 | 41 | 1014.9 |
| 20260831031455 | 33 | 28 | 1.6 | 4.8 | 0.00 | 0.00 | 0.00 | 41 | 1014.9 |
| 20260831030955 | 33 | 351 | 3.2 | 9.7 | 0.00 | 0.00 | 0.00 | 41 | 1014.8 |
| 20260831030454 | 33 | 259 | 4.8 | 9.7 | 0.00 | 0.00 | 0.00 | 41 | 1014.8 |
| 20260831025952 | 33 | 90 | 1.6 | 11.3 | 0.00 | 0.00 | 0.00 | 41 | 1014.7 |
| 20260831025452 | 33 | 146 | 0.0 | 3.2 | 0.00 | 0.00 | 0.00 | 41 | 1014.6 |
| 20260831024948 | 33 | 260 | 1.6 | 11.3 | 0.00 | 0.00 | 0.00 | 40 | 1014.6 |
| 20260831024443 | 33 | 240 | 6.4 | 11.3 | 0.00 | 0.00 | 0.00 | 40 | 1014.6 |
| 20260831023942 | 33 | 19 | 1.6 | 6.4 | 0.00 | 0.00 | 0.00 | 40 | 1014.3 |
| 20260831023440 | 33 | 58 | 3.2 | 6.4 | 0.00 | 0.00 | 0.00 | 40 | 1014.2 |
| 20260831022936 | 33 | 165 | 1.6 | 4.8 | 0.00 | 0.00 | 0.00 | 39 | 1014.2 |
| 20260831022435 | 33 | 149 | 1.6 | 6.4 | 0.00 | 0.00 | 0.00 | 39 | 1014.2 |
| 20260831021930 | 33 | 261 | 3.2 | 9.7 | 0.00 | 0.00 | 0.00 | 39 | 1014.1 |
| 20260831021429 | 33 | 345 | 3.2 | 4.8 | 0.00 | 0.00 | 0.00 | 39 | 1014.0 |
| 20260831020925 | 33 | 113 | 0.0 | 1.6 | 0.00 | 0.00 | 0.00 | 38 | 1013.9 |
| 20260831020425 | 33 | 80 | 1.6 | 3.2 | 0.00 | 0.00 | 0.00 | 38 | 1013.8 |
| 20260831015920 | 33 | 324 | 1.6 | 1.6 | 0.00 | 0.00 | 0.00 | 38 | 1013.7 |
| 20260831015416 | 33 | 268 | 1.6 | 3.2 | 0.00 | 0.00 | 0.00 | 38 | 1013.7 |
| 20260831014911 | 34 | 180 | 1.6 | 1.6 | 0.00 | 0.00 | 0.00 | 37 | 1013.7 |
| 20260831014410 | 34 | 280 | 1.6 | 4.8 | 0.00 | 0.00 | 0.00 | 37 | 1013.6 |
| 20260831013907 | 34 | 302 | 3.2 | 4.8 | 0.00 | 0.00 | 0.00 | 36 | 1013.4 |
| 20260831013402 | 34 | 72 | 3.2 | 3.2 | 0.00 | 0.00 | 0.00 | 36 | 1013.6 |
| 20260831012902 | 35 | 189 | 1.6 | 3.2 | 0.00 | 0.00 | 0.00 | 36 | 1013.3 |
| 20260831012357 | 35 | 255 | 0.0 | 4.8 | 0.00 | 0.00 | 0.00 | 36 | 1013.3 |
| 20260831011852 | 35 | 324 | 0.0 | 3.2 | 0.00 | 0.00 | 0.00 | 36 | 1013.3 |
| 20260831011346 | 35 | 38 | 0.0 | 4.8 | 0.00 | 0.00 | 0.00 | 35 | 1013.2 |
| 20260831010842 | 35 | 97 | 3.2 | 6.4 | 0.00 | 0.00 | 0.00 | 35 | 1013.2 |
| 20260831010341 | 35 | 261 | 1.6 | 6.4 | 0.00 | 0.00 | 0.00 | 35 | 1013.0 |
| 20260831005838 | 35 | 270 | 1.6 | 3.2 | 0.00 | 0.00 | 0.00 | 34 | 1013.3 |
| 20260831005333 | 36 | 126 | 1.6 | 4.8 | 0.00 | 0.00 | 0.00 | 34 | 1013.2 |
| 20260831004827 | 36 | 319 | 3.2 | 6.4 | 0.00 | 0.00 | 0.00 | 33 | 1013.1 |
| 20260831004324 | 36 | 37 | 1.6 | 4.8 | 0.00 | 0.00 | 0.00 | 33 | 1013.3 |
| 20260831003819 | 36 | 203 | 6.4 | 6.4 | 0.00 | 0.00 | 0.00 | 33 | 1013.2 |
| 20260831003315 | 36 | 245 | 1.6 | 11.3 | 0.00 | 0.00 | 0.00 | 33 | 1013.3 |
| 20260831002815 | 36 | 65 | 3.2 | 11.3 | 0.00 | 0.00 | 0.00 | 33 | 1013.3 |
| 20260831002308 | 36 | 238 | 6.4 | 11.3 | 0.00 | 0.00 | 0.00 | 32 | 1013.1 |
| 20260831001805 | 37 | 222 | 6.4 | 11.3 | 0.00 | 0.00 | 0.00 | 32 | 1013.0 |
| 20260831001304 | 37 | 276 | 6.4 | 11.3 | 0.00 | 0.00 | 0.00 | 32 | 1013.0 |
| 20260831000802 | 37 | 236 | 4.8 | 12.9 | 0.00 | 0.00 | 0.00 | 32 | 1013.3 |
| 20260831000303 | 37 | 243 | 8.0 | 14.5 | 0.00 | 0.00 | 0.00 | 32 | 1013.3 |
| 20260830235800 | 37 | 318 | 1.6 | 4.8 | 0.00 | 0.00 | 0.00 | 32 | 1013.1 |
| 20260830235255 | 37 | 25 | 4.8 | 11.3 | 0.00 | 0.00 | 0.00 | 32 | 1013.4 |
| 20260830234750 | 37 | 96 | 4.8 | 6.4 | 0.00 | 0.00 | 0.00 | 32 | 1013.2 |
| 20260830234246 | 37 | 48 | 1.6 | 9.7 | 0.00 | 0.00 | 0.00 | 31 | 1013.2 |
| 20260830233742 | 37 | 230 | 3.2 | 4.8 | 0.00 | 0.00 | 0.00 | 31 | 1013.4 |
| 20260830233237 | 37 | 222 | 6.4 | 6.4 | 0.00 | 0.00 | 0.00 | 31 | 1013.2 |
| 20260830232732 | 37 | 281 | 0.0 | 11.3 | 0.00 | 0.00 | 0.00 | 31 | 1013.3 |
| 20260830232228 | 38 | 317 | 3.2 | 4.8 | 0.00 | 0.00 | 0.00 | 31 | 1013.2 |
| 20260830231725 | 38 | 290 | 3.2 | 11.3 | 0.00 | 0.00 | 0.00 | 31 | 1013.2 |
| 20260830231224 | 38 | 265 | 1.6 | 14.5 | 0.00 | 0.00 | 0.00 | 31 | 1013.3 |